Regional Weather Roundup
Issued by NWS Bismarck, ND

Home | Current Version | Previous Version | Text Only | Print | Product List | Glossary On
Versions: 1 2 3 4 5 6 7 8 9 10 11 12 13 14 15 16 17 18 19 20 21 22 23 24 25 26 27 28 29 30 31 32 33 34 35 36 37 38 39 40 41 42 43 44 45 46 47 48 49 50
924
ASUS43 KBIS 241010
RWRBIS

NWR BROADCAST TEXT
NATIONAL WEATHER SERVICE BISMARCK ND
500 AM CDT SUN JUL 24 2016

NOTE: "FAIR" INDICATES FEW OR NO CLOUDS BELOW 12,000 FEET WITH NO
SIGNIFICANT WEATHER AND/OR OBSTRUCTIONS TO VISIBILITY.


CITY           SKY/WX    TMP DP  RH WIND       PRES   REMARKS
WILLISTON      CLEAR     59  52  77 W10       30.00S
MINOT          CLEAR     66  55  67 W15       29.90F
MINOT AFB      CLEAR     59  56  88 W8        29.90S
BISMARCK       CLEAR     61  57  87 W7        30.00R
DICKINSON      CLEAR     52  49  89 W6        30.03F
GARRISON         N/A     60  57  89 W9        29.95R
HETTINGER ARPT PTCLDY    51  47  86 NW6       30.08F
JAMESTOWN      CLEAR     63  59  87 W7        29.89R
CARRINGTON     FAIR      63  59  88 W12       29.90S
HAZEN          FAIR      57  54  88 SW9       30.01R
LINTON         FAIR      57  57 100 SW5       30.02R
MANDAN         FAIR      57  55  94 W10       30.01R
OAKES            N/A    N/A N/A N/A MISG        N/A
STANLEY        FAIR      57  57 100 W7        29.99S
$$

CITY           SKY/WX    TMP DP  RH WIND       PRES   REMARKS
GRAND FORKS    CLEAR     64  60  87 NW9       29.78R
GRAND FORKS AF CLEAR     65  60  83 NW13      29.79R
DEVILS LAKE    NOT AVBL
FARGO          CLEAR     64  59  83 W10       29.82R
CAVALIER       FAIR      63  59  88 W12G17    29.77S
GRAFTON        FAIR      64  61  88 W12       29.79R
GWINNER        FAIR      63  59  88 W9        29.90R
LANGDON        FAIR      57  57 100 W6        29.83R
ROLLA            N/A     61  57  88 W7        29.85S
$$

CITY           SKY/WX    TMP DP  RH WIND       PRES   REMARKS
ABERDEEN       CLEAR     60  56  86 W7        29.94R
MOBRIDGE       CLEAR     61  55  81 NW3       29.99S
BUFFALO          N/A     62  48  60 W3        30.04S
RAPID CITY     CLOUDY    66  45  46 CALM      30.11R THUNDER
GLASGOW        CLEAR     57  53  86 E6        30.01F
SIDNEY         CLEAR     54  51  90 S5        30.02S
WOLF POINT     CLEAR     53  51  93 SW3       30.03S
GLENDIVE       CLEAR     55  49  80 W3        30.06R
MILES CITY     CLEAR     63  48  58 S5        30.07S
BAKER          PTCLDY    53  50  89 CALM      30.08F
$$

CITY           SKY/WX    TMP DP  RH WIND       PRES   REMARKS
BILLINGS       CLOUDY    61  45  55 NW5       30.09F
GREAT FALLS    CLEAR     52  40  63 SW12      30.12R
REGINA         PTCLDY    55  54  94 W10       29.94S
ESTEVAN        CLEAR     57  55  94 W9        29.94S
$$





USA.gov is the U.S. government's official web portal to all federal, state and local government web resources and services.